Facebook Twitter

Wetterstation Elsenborn

Messwerte
  Temperatur Wetter Niederschlag Luftdruck Wind
So, 15:25 Uhr 4° - 1021 hPa 23 km/h NO
So, 15:00 Uhr 4° - 1023 hPa 18 km/h NO

Böen 43 km/h
So, 14:55 Uhr 4° - 1021 hPa 16 km/h NO
So, 14:25 Uhr 5° - 1021 hPa 26 km/h NO
So, 14:14 Uhr 4° - 1021 hPa 23 km/h NO

Böen 42 km/h
So, 14:00 Uhr 3° 0.7 mm 1023 hPa 22 km/h NO

Böen 32 km/h
So, 13:55 Uhr 3° - 1021 hPa 23 km/h NO
So, 13:25 Uhr 2° - 1021 hPa 16 km/h NO
So, 13:00 Uhr 1° - 1023 hPa 18 km/h NO

Böen 32 km/h
So, 12:55 Uhr 1° - 1020 hPa 21 km/h NO
So, 12:25 Uhr 1° - 1020 hPa 21 km/h NO
So, 12:20 Uhr 1° - 1020 hPa 21 km/h NO
So, 12:03 Uhr 1° - 1020 hPa 19 km/h NO
So, 12:00 Uhr 1° - 1023 hPa 14 km/h NO

Böen 29 km/h
So, 11:55 Uhr 1° - 1020 hPa 16 km/h NO
So, 11:48 Uhr 1° - 1020 hPa 19 km/h NO
So, 11:45 Uhr 1° - 1020 hPa 16 km/h NO
So, 11:41 Uhr 1° - 1020 hPa 16 km/h NO
So, 11:38 Uhr 1° - 1020 hPa 16 km/h NO
So, 11:25 Uhr 1° - 1019 hPa 14 km/h N

Alle Zeitangaben MESZ